| time (UTC) | temp F | wind direction | speed MPH | gust MPH | rain 1hr in | rain 24hr in | rain mn in | humidity % | barometer mb |
| 20260506113042 | 65 | 157 | 4.0 | 12.0 | 0.00 | 0.00 | 0.00 | 75 | 1007.7 |
| 20260506111536 | 64 | 152 | 3.0 | 10.0 | 0.00 | 0.00 | 0.00 | 75 | 1007.7 |
| 20260506110036 | 64 | 146 | 0.0 | 11.0 | 0.00 | 0.00 | 0.00 | 76 | 1007.6 |
| 20260506104535 | 64 | 162 | 1.0 | 6.0 | 0.00 | 0.00 | 0.00 | 77 | 1007.5 |
| 20260506103033 | 64 | 187 | 2.0 | 9.0 | 0.00 | 0.00 | 0.00 | 77 | 1007.6 |
| 20260506101533 | 64 | 124 | 1.0 | 9.0 | 0.00 | 0.00 | 0.00 | 77 | 1007.5 |
| 20260506100037 | 63 | 152 | 2.0 | 9.0 | 0.00 | 0.00 | 0.00 | 77 | 1007.2 |
| 20260506094532 | 63 | 164 | 1.0 | 9.0 | 0.00 | 0.00 | 0.00 | 78 | 1007.4 |
| 20260506093031 | 63 | 165 | 2.0 | 12.0 | 0.00 | 0.00 | 0.00 | 78 | 1007.4 |
| 20260506091530 | 63 | 161 | 0.0 | 9.0 | 0.00 | 0.00 | 0.00 | 78 | 1007.3 |
| 20260506090029 | 63 | 152 | 1.0 | 8.0 | 0.00 | 0.00 | 0.00 | 77 | 1007.4 |
| 20260506084524 | 64 | 165 | 0.0 | 5.0 | 0.00 | 0.00 | 0.00 | 77 | 1007.6 |
| 20260506083023 | 64 | 138 | 0.0 | 6.0 | 0.00 | 0.00 | 0.00 | 76 | 1007.6 |
| 20260506081521 | 64 | 158 | 0.0 | 5.0 | 0.00 | 0.00 | 0.00 | 75 | 1007.7 |
| 20260506073019 | 65 | 179 | 0.0 | 7.0 | 0.00 | 0.00 | 0.00 | 72 | 1007.8 |
| 20260506071515 | 65 | 125 | 1.0 | 5.0 | 0.00 | 0.00 | 0.00 | 71 | 1007.7 |
| 20260506061510 | 66 | 170 | 1.0 | 6.0 | 0.00 | 0.00 | 0.00 | 68 | 1007.9 |
| 20260506050108 | 67 | 125 | 1.0 | 4.0 | 0.00 | 0.00 | 0.00 | 63 | 1008.5 |
| 20260506044558 | 67 | 151 | 0.0 | 6.0 | 0.00 | 0.00 | 0.00 | 63 | 1008.5 |
| 20260506043100 | 68 | 183 | 2.0 | 8.0 | 0.00 | 0.00 | 0.00 | 62 | 1008.5 |
| 20260506041556 | 68 | 173 | 2.0 | 8.0 | 0.00 | 0.00 | 0.00 | 61 | 1008.4 |
| 20260506040052 | 68 | 130 | 2.0 | 11.0 | 0.00 | 0.00 | 0.00 | 60 | 1008.4 |
| 20260506034603 | 68 | 189 | 1.0 | 7.0 | 0.00 | 0.00 | 0.00 | 60 | 1008.4 |
| 20260506033051 | 69 | 153 | 1.0 | 6.0 | 0.00 | 0.00 | 0.00 | 59 | 1008.4 |
| 20260506031551 | 70 | 185 | 1.0 | 9.0 | 0.00 | 0.00 | 0.00 | 57 | 1008.3 |
| 20260506030050 | 71 | 157 | 3.0 | 12.0 | 0.00 | 0.00 | 0.00 | 54 | 1008.2 |
| 20260506024606 | 71 | 175 | 4.0 | 14.0 | 0.00 | 0.00 | 0.00 | 53 | 1008.1 |
| 20260506023048 | 72 | 152 | 4.0 | 15.0 | 0.00 | 0.00 | 0.00 | 51 | 1008.2 |
| 20260506021551 | 73 | 166 | 3.0 | 12.0 | 0.00 | 0.00 | 0.00 | 49 | 1008.1 |
| 20260506020048 | 73 | 112 | 3.0 | 11.0 | 0.00 | 0.00 | 0.00 | 47 | 1008.0 |
| 20260506014550 | 73 | 130 | 2.0 | 8.0 | 0.00 | 0.00 | 0.00 | 46 | 1007.9 |
| 20260506013101 | 73 | 129 | 2.0 | 9.0 | 0.00 | 0.00 | 0.00 | 45 | 1007.7 |
| 20260506011556 | 74 | 158 | 2.0 | 11.0 | 0.00 | 0.00 | 0.00 | 45 | 1007.5 |
| 20260506010046 | 74 | 160 | 0.0 | 8.0 | 0.00 | 0.00 | 0.00 | 44 | 1007.5 |
| 20260506004545 | 75 | 161 | 1.0 | 7.0 | 0.00 | 0.00 | 0.00 | 42 | 1007.3 |
| 20260506003045 | 75 | 122 | 0.0 | 6.0 | 0.00 | 0.00 | 0.00 | 40 | 1007.1 |
| 20260506001546 | 76 | 171 | 1.0 | 12.0 | 0.00 | 0.00 | 0.00 | 40 | 1006.8 |
| 20260506000043 | 77 | 150 | 3.0 | 14.0 | 0.00 | 0.00 | 0.00 | 38 | 1006.7 |
| 20260505234542 | 77 | 160 | 2.0 | 12.0 | 0.00 | 0.00 | 0.00 | 36 | 1006.7 |
| 20260505233040 | 77 | 94 | 1.0 | 6.0 | 0.00 | 0.00 | 0.00 | 35 | 1006.7 |
| 20260505231541 | 78 | 154 | 3.0 | 10.0 | 0.00 | 0.00 | 0.00 | 33 | 1006.5 |
| 20260505230051 | 79 | 162 | 6.0 | 13.0 | 0.00 | 0.00 | 0.00 | 32 | 1006.3 |
| 20260505224539 | 79 | 185 | 5.0 | 12.0 | 0.00 | 0.00 | 0.00 | 32 | 1006.2 |
| 20260505223052 | 80 | 143 | 4.0 | 10.0 | 0.00 | 0.00 | 0.00 | 32 | 1006.0 |
| 20260505221537 | 80 | 73 | 3.0 | 12.0 | 0.00 | 0.00 | 0.00 | 32 | 1006.0 |
| 20260505220042 | 81 | 113 | 4.0 | 12.0 | 0.00 | 0.00 | 0.00 | 30 | 1005.8 |
| 20260505214536 | 80 | 118 | 3.0 | 12.0 | 0.00 | 0.00 | 0.00 | 29 | 1005.9 |
| 20260505213137 | 80 | 175 | 2.0 | 16.0 | 0.00 | 0.00 | 0.00 | 30 | 1005.7 |
| 20260505211533 | 81 | 126 | 4.0 | 21.0 | 0.00 | 0.00 | 0.00 | 31 | 1005.4 |
| 20260505210032 | 81 | 121 | 9.0 | 18.0 | 0.00 | 0.00 | 0.00 | 30 | 1005.4 |
| 20260505204530 | 81 | 202 | 3.0 | 15.0 | 0.00 | 0.00 | 0.00 | 32 | 1005.4 |
| 20260505203042 | 82 | 133 | 3.0 | 17.0 | 0.00 | 0.00 | 0.00 | 32 | 1005.5 |
| 20260505201528 | 82 | 140 | 5.0 | 22.0 | 0.00 | 0.00 | 0.00 | 31 | 1005.6 |
| 20260505200034 | 82 | 147 | 7.0 | 19.0 | 0.00 | 0.00 | 0.00 | 30 | 1005.6 |
| 20260505194525 | 82 | 147 | 2.0 | 16.0 | 0.00 | 0.00 | 0.00 | 32 | 1005.5 |
| 20260505193023 | 81 | 135 | 7.0 | 18.0 | 0.00 | 0.00 | 0.00 | 33 | 1005.9 |
| 20260505191521 | 82 | 132 | 7.0 | 20.0 | 0.00 | 0.00 | 0.00 | 32 | 1006.1 |
| 20260505190024 | 82 | 176 | 6.0 | 14.0 | 0.00 | 0.00 | 0.00 | 33 | 1006.2 |
| 20260505184522 | 82 | 117 | 6.0 | 16.0 | 0.00 | 0.00 | 0.00 | 34 | 1006.4 |
| 20260505183014 | 82 | 182 | 5.0 | 22.0 | 0.00 | 0.00 | 0.00 | 34 | 1006.8 |
| 20260505181512 | 81 | 167 | 6.0 | 13.0 | 0.00 | 0.00 | 0.00 | 37 | 1006.8 |
| 20260505180011 | 81 | 189 | 6.0 | 17.0 | 0.00 | 0.00 | 0.00 | 38 | 1006.9 |
| 20260505174514 | 80 | 111 | 3.0 | 18.0 | 0.00 | 0.00 | 0.00 | 38 | 1007.0 |
| 20260505173025 | 81 | 131 | 2.0 | 11.0 | 0.00 | 0.00 | 0.00 | 40 | 1007.1 |
| 20260505171505 | 80 | 123 | 3.0 | 13.0 | 0.00 | 0.00 | 0.00 | 40 | 1007.5 |
| 20260505170002 | 80 | 153 | 5.0 | 15.0 | 0.00 | 0.00 | 0.00 | 40 | 1007.6 |
| 20260505164605 | 79 | 146 | 4.0 | 10.0 | 0.00 | 0.00 | 0.00 | 43 | 1007.8 |
| 20260505163102 | 78 | 133 | 4.0 | 9.0 | 0.00 | 0.00 | 0.00 | 44 | 1008.0 |
| 20260505161554 | 77 | 161 | 3.0 | 14.0 | 0.00 | 0.00 | 0.00 | 45 | 1008.2 |
| 20260505153104 | 74 | 123 | 4.0 | 12.0 | 0.00 | 0.00 | 0.00 | 49 | 1008.8 |
| 20260505151553 | 73 | 146 | 5.0 | 12.0 | 0.00 | 0.00 | 0.00 | 49 | 1008.9 |
| 20260505124510 | 62 | 152 | 2.0 | 6.0 | 0.00 | 0.00 | 0.00 | 70 | 1009.0 |
| 20260505123006 | 60 | 142 | 2.0 | 8.0 | 0.00 | 0.00 | 0.00 | 74 | 1009.1 |
| 20260505121502 | 58 | 169 | 1.0 | 8.0 | 0.00 | 0.00 | 0.00 | 76 | 1009.2 |
| 20260505120059 | 57 | 177 | 2.0 | 9.0 | 0.00 | 0.00 | 0.00 | 79 | 1009.6 |
| 20260505114555 | 55 | 160 | 0.0 | 6.0 | 0.00 | 0.00 | 0.00 | 85 | 1009.6 |